Weather History for Anoka County, MN

Change the Weather History Date:

Wednesday, January 22, 2014

  Actual Average Record
Temperature  
Mean Temperature 0 °F -  
Max Temperature 6 °F 20 °F 44 °F (2002)
Min Temperature -7 °F 5 °F -11 °F (2004)
Degree Days  
Heating Degree Days 66    
Moisture  
Dew Point -5 °F    
Average Humidity 73    
Maximum Humidity 92    
Minimum Humidity 55    
Precipitation  
Precipitation 0.00 in - - ()
Sea Level Pressure  
Sea Level Pressure 30.12 in    
Wind  
Wind Speed 9 mph (WNW)    
Max Wind Speed 25 mph    
Max Gust Speed 32 mph    
Visibility 9 miles    
Events Snow    
Averages and records for this station are not official NWS values.
T = Trace of Precipitation, MM = Missing Value Source: NWS Daily Summary

Daily Weather History Graph

Daily Weather History Graph

Search for Another Location

Airport:

Trip Planner

Search our weather history database for the weather conditions in past years. The results will help you decide how hot, cold, wet, or windy it might be!

Date:

Astronomy

Jan. 22, 2014 Rise Set
Actual Time 7:43 AM CST 5:06 PM CST
Civil Twilight 7:10 AM CST 5:38 PM CST
Nautical Twilight 6:34 AM CST 6:14 PM CST
Astronomical Twilight 5:59 AM CST 6:49 PM CST
Moon 11:59 PM CST (1/22) 10:25 AM CST (1/22)
Length of Visible Light 10h 27m
Length of Day
9h 23m
Waning Gibbous, 65% of the Moon is Illuminated
Jan 22
Waning Gibbous
Jan 23
Last Quarter
Jan 30
New
Feb 6
First Quarter
Feb 14
Full

Hourly Weather History & Observations

Time (CST) Temp. Windchill Dew Point Humidity Pressure Visibility Wind Dir Wind Speed Gust Speed Precip Events Conditions
12:14 AM 6.8 °F -0.1 °F 3.2 °F 85% 29.96 in 2.0 mi SSE 3.5 mph - N/A Snow Light Snow
12:34 AM 6.8 °F -0.1 °F 3.2 °F 85% 29.94 in 2.5 mi SSE 3.5 mph - N/A Snow Light Snow
12:54 AM 6.8 °F - 3.2 °F 85% 29.95 in 3.0 mi Calm Calm - N/A Snow Light Snow
1:14 AM 6.8 °F - 3.2 °F 85% 29.95 in 4.0 mi Calm Calm - N/A Snow Light Snow
1:34 AM 6.8 °F - 3.2 °F 85% 29.94 in 4.0 mi Calm Calm - N/A Snow Light Snow
1:54 AM 6.8 °F -2.0 °F 3.2 °F 85% 29.93 in 5.0 mi West 4.6 mph - N/A Snow Light Snow
2:14 AM 6.8 °F -4.8 °F 5.0 °F 92% 29.94 in 10.0 mi West 6.9 mph - N/A Snow Light Snow
2:34 AM 6.8 °F -6.9 °F 3.2 °F 85% 29.94 in 10.0 mi West 9.2 mph - N/A Snow Light Snow
2:54 AM 6.8 °F -8.6 °F 3.2 °F 85% 29.94 in 10.0 mi WNW 11.5 mph - N/A   Overcast
3:14 AM 6.8 °F -10.7 °F 3.2 °F 85% 29.95 in 10.0 mi WNW 15.0 mph 18.4 mph N/A   Overcast
3:34 AM 6.8 °F -9.3 °F 1.4 °F 79% 29.95 in 10.0 mi NW 12.7 mph - N/A   Overcast
3:54 AM 6.8 °F -5.9 °F 1.4 °F 79% 29.95 in 10.0 mi WNW 8.1 mph 12.7 mph N/A   Overcast
4:14 AM 6.8 °F -8.6 °F 1.4 °F 79% 29.95 in 10.0 mi WNW 11.5 mph - N/A   Overcast
4:34 AM 5.0 °F -9.1 °F -0.4 °F 78% 29.95 in 10.0 mi WNW 9.2 mph - N/A   Overcast
4:54 AM 5.0 °F -8.1 °F -0.4 °F 78% 29.95 in 10.0 mi WNW 8.1 mph - N/A   Overcast
5:14 AM 5.0 °F -8.1 °F -0.4 °F 78% 29.95 in 10.0 mi WNW 8.1 mph - N/A   Overcast
5:34 AM 5.0 °F -5.6 °F -0.4 °F 78% 29.94 in 10.0 mi WNW 5.8 mph - N/A   Overcast
5:54 AM 5.0 °F -6.9 °F 1.4 °F 85% 29.94 in 10.0 mi WNW 6.9 mph - N/A   Overcast
6:14 AM 6.8 °F -6.9 °F 1.4 °F 79% 29.94 in 10.0 mi West 9.2 mph - N/A   Overcast
6:34 AM 6.8 °F -5.9 °F 1.4 °F 79% 29.95 in 4.0 mi West 8.1 mph - N/A Snow Light Snow
6:54 AM 6.8 °F -5.9 °F 1.4 °F 79% 29.95 in 2.5 mi West 8.1 mph - N/A Snow Light Snow
11:45 AM 3.2 °F -18.6 °F -7.6 °F 61% 30.07 in 5.0 mi NNW 21.9 mph 26.5 mph N/A   Haze
12:45 PM 1.4 °F -21.0 °F -7.6 °F 66% 30.08 in 10.0 mi NNW 21.9 mph 29.9 mph N/A   Mostly Cloudy
1:45 PM 1.4 °F -21.0 °F -9.4 °F 61% 30.10 in 10.0 mi NNW 21.9 mph 32.2 mph N/A   Mostly Cloudy
2:45 PM 1.4 °F -21.0 °F -11.2 °F 56% 30.14 in 10.0 mi NNW 21.9 mph 32.2 mph N/A   Scattered Clouds
3:45 PM 1.4 °F -22.3 °F -11.2 °F 56% 30.18 in 10.0 mi NNW 25.3 mph 31.1 mph N/A   Scattered Clouds
4:45 PM -0.4 °F -22.3 °F -11.2 °F 60% 30.24 in 10.0 mi NNW 19.6 mph 25.3 mph N/A   Partly Cloudy
5:45 PM -0.4 °F -19.9 °F -13.0 °F 55% 30.27 in 10.0 mi NW 15.0 mph 21.9 mph N/A   Clear
6:45 PM -2.2 °F -22.9 °F -13.0 °F 60% 30.30 in 10.0 mi NW 16.1 mph 21.9 mph N/A   Clear
7:45 PM -2.2 °F -22.9 °F -13.0 °F 60% 30.33 in 10.0 mi NW 16.1 mph - N/A   Clear
8:45 PM -2.2 °F -20.7 °F -13.0 °F 60% 30.36 in 10.0 mi NW 12.7 mph - N/A   Clear
9:14 PM -2.2 °F -19.9 °F -13.0 °F 60% 30.38 in 10.0 mi NW 11.5 mph - N/A   Clear
9:34 PM -2.2 °F -21.5 °F -14.8 °F 55% 30.39 in 10.0 mi NW 13.8 mph - N/A   Clear
9:54 PM -4.0 °F -23.0 °F -14.8 °F 60% 30.41 in 10.0 mi NW 12.7 mph - N/A   Clear
10:14 PM -5.8 °F -25.2 °F -14.8 °F 65% 30.42 in 10.0 mi WNW 12.7 mph - N/A   Clear
10:34 PM -5.8 °F -26.0 °F -14.8 °F 65% 30.43 in 10.0 mi WNW 13.8 mph 18.4 mph N/A   Clear
10:54 PM -5.8 °F -24.4 °F -14.8 °F 65% 30.44 in 10.0 mi WNW 11.5 mph - N/A   Clear
11:14 PM -5.8 °F -24.4 °F -14.8 °F 65% 30.45 in 10.0 mi WNW 11.5 mph - N/A   Clear
11:34 PM -7.6 °F -27.5 °F -14.8 °F 71% 30.45 in 10.0 mi WNW 12.7 mph - N/A   Clear
11:54 PM -7.6 °F -26.6 °F -14.8 °F 71% 30.46 in 10.0 mi WNW 11.5 mph - N/A   Clear